This is the latest recevied weather packets stored in our database for station/object KD7MPG-3. If no packets are shown the sender has not sent any weather packets the latest 10 day(s).
| Time | Temp. | Humidity | Pressure | Rain* | Wind** | Luminosity | Snow |
|---|---|---|---|---|---|---|---|
| 1777563023 | 11.11° C | 90% | 1027.7 hPa | 0 mm | - | - | - |
| 1777562719 | 10.56° C | 91% | 1027.8 hPa | 0 mm | - | - | - |
| 1777562418 | 10.56° C | 91% | 1027.8 hPa | 0 mm | - | - | - |
| 1777562115 | 10° C | 92% | 1027.9 hPa | 0 mm | - | - | - |
| 1777561814 | 9.44° C | 92% | 1027.8 hPa | 0 mm | - | - | - |
| 1777561512 | 9.44° C | 92% | 1027.9 hPa | 0 mm | - | - | - |
| 1777561211 | 9.44° C | 92% | 1028 hPa | 0 mm | - | - | - |
| 1777560913 | 8.89° C | 92% | 1028 hPa | 0 mm | - | - | - |
| 1777560607 | 8.89° C | 92% | 1028 hPa | 0 mm | - | - | - |
| 1777560308 | 8.89° C | 92% | 1027.9 hPa | 0 mm | - | - | - |
| 1777560009 | 8.33° C | 92% | 1028 hPa | 0 mm | - | - | - |
| 1777559708 | 8.33° C | 92% | 1028 hPa | 0 mm | - | - | - |
| 1777559408 | 7.78° C | 92% | 1028 hPa | 0 mm | - | - | - |
| 1777559109 | 7.78° C | 92% | 1027.9 hPa | 0 mm | - | - | - |
| 1777558803 | 7.78° C | 92% | 1027.9 hPa | 0 mm | - | - | - |
| 1777558504 | 7.22° C | 92% | 1027.8 hPa | 0 mm | - | - | - |
| 1777558205 | 7.22° C | 93% | 1027.8 hPa | 0 mm | - | - | - |
| 1777557903 | 7.22° C | 93% | 1027.7 hPa | 0 mm | - | - | - |
| 1777557603 | 6.67° C | 93% | 1027.6 hPa | 0 mm | - | - | - |
| 1777557305 | 6.67° C | 93% | 1027.6 hPa | 0 mm | - | - | - |
| 1777557000 | 6.11° C | 93% | 1027.6 hPa | 0 mm | - | - | - |
| 1777556700 | 6.11° C | 93% | 1027.7 hPa | 0 mm | - | - | - |
| 1777556401 | 5.56° C | 93% | 1027.5 hPa | 0 mm | - | - | - |
| 1777556100 | 5.56° C | 93% | 1027.3 hPa | 0 mm | - | - | - |
| 1777555800 | 5.56° C | 93% | 1027.4 hPa | 0 mm | - | - | - |
* Rain latest hour (hover to see other rain measurements)
** Current wind speed in m/s (hover to see current wind gust speed)